Voltar ao catálogo

STARLINK-33929

AtivoComunicaçõesVLEO
NORAD 64188·PAYLOAD·🇺🇸 United States

Lançado May 28, 2025 de Cape Canaveral Space Force Station

Loading…

Próximas Passagens (próximas 24 horas)

TLE

AtualizadoSource: CelesTrak SupGP

Época: Sep 15, 2026, 02:15 UTC

1 64188C 25113U   26258.09423611  .00024080  00000+0  71139-3 0  2583
2 64188  53.1576 290.9679 0001180  94.1704 111.0042 15.34380934    13

Acompanhe STARLINK-33929 em tempo real com AllMySat

Download on the App Store